• In Uzbekistan
  • List of Countries
  • For 7 days
  • Water Temperature
  • Satellite Maps
  • Weather Map
  • Weather Widgets
  • user-avatar
    Login

    Hourly Weather Igls

    Today, 23 July, Tuesday

    Time Temperature Precipitation Wind Pressure Humidity
    00:00 +18°C° 0 mm 1 mps 691 mmHg 92%
    01:00 +16°C° 0 mm 0 mps 691 mmHg 94%
    02:00 +18°C° 0 mm 1 mps 690 mmHg 94%
    03:00 +18°C° 0 mm 1 mps 690 mmHg 94%
    04:00 +16°C° 0 mm 1 mps 690 mmHg 94%
    05:00 +19°C° 0 mm 1 mps 690 mmHg 89%
    06:00 +19°C° 0 mm 0 mps 691 mmHg 83%
    07:00 +21°C° 0 mm 0 mps 691 mmHg 77%
    08:00 +23°C° 0 mm 0 mps 691 mmHg 66%
    09:00 +27°C° 0 mm 1 mps 692 mmHg 54%
    10:00 +29°C° 0 mm 1 mps 692 mmHg 42%
    11:00 +30°C° 0 mm 1 mps 692 mmHg 40%
    12:00 +31°C° 0 mm 1 mps 692 mmHg 37%
    13:00 +32°C° 0 mm 2 mps 691 mmHg 35%
    14:00 +32°C° 0 mm 2 mps 691 mmHg 37%
    15:00 +31°C° 0 mm 2 mps 691 mmHg 39%
    16:00 +31°C° 0 mm 2 mps 691 mmHg 41%
    17:00 +29°C° 0 mm 2 mps 690 mmHg 52%
    18:00 +28°C° 0 mm 1 mps 690 mmHg 62%
    19:00 +26°C° 0 mm 1 mps 689 mmHg 73%
    20:00 +24°C° 0 mm 1 mps 689 mmHg 78%
    21:00 +22°C° 0 mm 1 mps 689 mmHg 83%
    22:00 +20°C° 0 mm 1 mps 689 mmHg 88%
    23:00 +20°C° 0 mm 1 mps 689 mmHg 86%

    Tomorrow, 24 July, Wednesday

    Time Temperature Precipitation Wind Pressure Humidity
    00:00 +20°C° 0 mm 1 mps 689 mmHg 85%
    01:00 +20°C° 0 mm 1 mps 688 mmHg 83%
    02:00 +20°C° 0 mm 1 mps 688 mmHg 83%
    03:00 +20°C° 0 mm 1 mps 688 mmHg 83%
    04:00 +19°C° 0 mm 1 mps 688 mmHg 82%
    05:00 +21°C° 0 mm 1 mps 688 mmHg 78%
    06:00 +23°C° 0 mm 1 mps 689 mmHg 73%
    07:00 +23°C° 0 mm 0 mps 689 mmHg 68%
    08:00 +27°C° 0 mm 1 mps 689 mmHg 61%
    09:00 +29°C° 0 mm 1 mps 690 mmHg 53%
    10:00 +32°C° 0 mm 1 mps 690 mmHg 46%
    11:00 +32°C° 0 mm 1 mps 690 mmHg 43%
    12:00 +33°C° 0 mm 1 mps 690 mmHg 39%
    13:00 +35°C° 0 mm 2 mps 690 mmHg 36%
    14:00 +34°C° 0.2 mm 2 mps 689 mmHg 40%
    15:00 +32°C° 0.2 mm 2 mps 689 mmHg 44%
    16:00 +31°C° 0.2 mm 2 mps 689 mmHg 48%
    17:00 +30°C° 0.7 mm 2 mps 689 mmHg 58%
    18:00 +28°C° 0.7 mm 1 mps 689 mmHg 68%
    19:00 +26°C° 0.7 mm 1 mps 688 mmHg 77%
    20:00 +25°C° 0.7 mm 1 mps 688 mmHg 81%
    21:00 +23°C° 0.7 mm 1 mps 688 mmHg 85%
    22:00 +22°C° 0.7 mm 1 mps 688 mmHg 89%
    23:00 +21°C° 0.2 mm 1 mps 688 mmHg 89%

    Day after tomorrow, 25 July, Thursday

    Time Temperature Precipitation Wind Pressure Humidity
    00:00 +21°C° 0.2 mm 1 mps 688 mmHg 89%
    01:00 +21°C° 0.2 mm 1 mps 688 mmHg 90%
    02:00 +20°C° 0 mm 1 mps 688 mmHg 90%
    03:00 +20°C° 0 mm 1 mps 688 mmHg 89%
    04:00 +20°C° 0 mm 1 mps 688 mmHg 89%
    05:00 +22°C° 0 mm 1 mps 688 mmHg 85%
    06:00 +21°C° 0 mm 0 mps 688 mmHg 81%
    07:00 +23°C° 0 mm 0 mps 689 mmHg 78%
    08:00 +25°C° 0 mm 0 mps 689 mmHg 68%
    09:00 +29°C° 0 mm 1 mps 689 mmHg 58%
    10:00 +31°C° 0 mm 1 mps 690 mmHg 48%
    11:00 +32°C° 0.2 mm 1 mps 689 mmHg 47%
    12:00 +32°C° 0.2 mm 1 mps 689 mmHg 45%
    13:00 +33°C° 0.2 mm 1 mps 689 mmHg 43%
    14:00 +32°C° 0.9 mm 1 mps 689 mmHg 47%
    15:00 +32°C° 0.9 mm 1 mps 688 mmHg 50%
    16:00 +31°C° 0.9 mm 1 mps 688 mmHg 53%
    17:00 +29°C° 1 mm 1 mps 688 mmHg 64%
    18:00 +27°C° 1 mm 1 mps 687 mmHg 74%
    19:00 +24°C° 1 mm 0 mps 687 mmHg 85%
    20:00 +24°C° 0.7 mm 1 mps 687 mmHg 86%
    21:00 +23°C° 0.7 mm 1 mps 687 mmHg 86%
    22:00 +22°C° 0.7 mm 1 mps 687 mmHg 87%
    23:00 +21°C° 0 mm 1 mps 686 mmHg 87%

    26 July, Friday

    Time Temperature Precipitation Wind Pressure Humidity
    00:00 +21°C° 0 mm 1 mps 686 mmHg 87%
    01:00 +20°C° 0 mm 1 mps 686 mmHg 87%
    02:00 +20°C° 0 mm 1 mps 685 mmHg 87%
    03:00 +20°C° 0 mm 1 mps 685 mmHg 86%
    04:00 +20°C° 0 mm 1 mps 685 mmHg 86%
    05:00 +21°C° 0 mm 1 mps 685 mmHg 83%
    06:00 +21°C° 0 mm 0 mps 685 mmHg 79%
    07:00 +22°C° 0 mm 0 mps 685 mmHg 76%
    08:00 +26°C° 0.2 mm 1 mps 685 mmHg 70%
    09:00 +28°C° 0.2 mm 1 mps 686 mmHg 63%
    10:00 +30°C° 0.2 mm 1 mps 686 mmHg 56%
    11:00 +30°C° 0.5 mm 1 mps 685 mmHg 55%
    12:00 +30°C° 0.5 mm 1 mps 685 mmHg 54%
    13:00 +30°C° 0.5 mm 1 mps 685 mmHg 53%
    14:00 +29°C° 1 mm 1 mps 684 mmHg 56%
    15:00 +29°C° 1 mm 1 mps 684 mmHg 60%
    16:00 +28°C° 1 mm 1 mps 684 mmHg 63%
    17:00 +26°C° 1.5 mm 1 mps 683 mmHg 71%
    18:00 +25°C° 1.5 mm 1 mps 683 mmHg 79%
    19:00 +21°C° 1.5 mm 0 mps 683 mmHg 87%
    20:00 +22°C° 0.4 mm 1 mps 682 mmHg 88%
    21:00 +21°C° 0.4 mm 1 mps 682 mmHg 89%
    22:00 +20°C° 0.4 mm 1 mps 682 mmHg 90%
    23:00 +19°C° 0 mm 1 mps 681 mmHg 90%

    27 July, Saturday

    Time Temperature Precipitation Wind Pressure Humidity
    00:00 +19°C° 0 mm 1 mps 681 mmHg 89%
    01:00 +18°C° 0 mm 1 mps 680 mmHg 89%
    02:00 +18°C° 0 mm 1 mps 680 mmHg 89%
    03:00 +18°C° 0 mm 1 mps 680 mmHg 88%
    04:00 +16°C° 0 mm 1 mps 679 mmHg 88%
    05:00 +17°C° 0 mm 0 mps 680 mmHg 85%
    06:00 +18°C° 0 mm 0 mps 680 mmHg 82%
    07:00 +20°C° 0 mm 0 mps 680 mmHg 79%
    08:00 +22°C° 0.2 mm 0 mps 680 mmHg 71%
    09:00 +26°C° 0.2 mm 1 mps 681 mmHg 62%
    10:00 +28°C° 0.2 mm 1 mps 681 mmHg 54%
    11:00 +28°C° 0.6 mm 1 mps 680 mmHg 54%
    12:00 +28°C° 0.6 mm 1 mps 680 mmHg 54%
    13:00 +28°C° 0.6 mm 1 mps 680 mmHg 53%
    14:00 +27°C° 1.3 mm 1 mps 679 mmHg 64%
    15:00 +25°C° 1.3 mm 1 mps 679 mmHg 74%
    16:00 +24°C° 1.3 mm 1 mps 678 mmHg 84%
    17:00 +23°C° 1 mm 1 mps 678 mmHg 86%
    18:00 +22°C° 1 mm 1 mps 678 mmHg 89%
    19:00 +21°C° 1 mm 1 mps 678 mmHg 91%
    20:00 +20°C° 0.2 mm 1 mps 678 mmHg 91%
    21:00 +20°C° 0.2 mm 1 mps 678 mmHg 91%
    22:00 +19°C° 0.2 mm 1 mps 678 mmHg 90%
    23:00 +19°C° 0 mm 1 mps 678 mmHg 90%

    28 July, Sunday

    Time Temperature Precipitation Wind Pressure Humidity
    00:00 +18°C° 0 mm 1 mps 678 mmHg 90%
    01:00 +16°C° 0 mm 1 mps 677 mmHg 90%
    02:00 +18°C° 0.1 mm 1 mps 677 mmHg 91%
    03:00 +18°C° 0.1 mm 1 mps 677 mmHg 91%
    04:00 +16°C° 0.1 mm 0 mps 677 mmHg 92%
    05:00 +16°C° 0.1 mm 0 mps 677 mmHg 91%
    06:00 +17°C° 0.1 mm 0 mps 678 mmHg 90%
    07:00 +17°C° 0.1 mm 0 mps 678 mmHg 89%
    08:00 +20°C° 0.4 mm 1 mps 678 mmHg 89%
    09:00 +21°C° 0.4 mm 1 mps 678 mmHg 88%
    10:00 +20°C° 0.4 mm 2 mps 679 mmHg 87%
    11:00 +20°C° 1.2 mm 2 mps 679 mmHg 89%
    12:00 +20°C° 1.2 mm 2 mps 679 mmHg 91%
    13:00 +19°C° 1.2 mm 2 mps 679 mmHg 92%
    14:00 +19°C° 0.6 mm 2 mps 679 mmHg 94%
    15:00 +19°C° 0.6 mm 2 mps 679 mmHg 95%
    16:00 +18°C° 0.6 mm 2 mps 679 mmHg 96%
    17:00 +19°C° 0.7 mm 1 mps 679 mmHg 97%
    18:00 +19°C° 0.7 mm 1 mps 680 mmHg 97%
    19:00 +18°C° 0.7 mm 1 mps 680 mmHg 98%
    20:00 +18°C° 0.7 mm 1 mps 680 mmHg 98%
    21:00 +18°C° 0.7 mm 1 mps 681 mmHg 98%
    22:00 +18°C° 0.7 mm 1 mps 681 mmHg 98%
    23:00 +16°C° 0.1 mm 1 mps 681 mmHg 98%
    Show more